User: anonymous   Login
Location: Unspecified
(40.7945°N, 111.1337°W)
Time: 14:06:35
(UTC-06:00)
Language:

Cosmos 2058 - Orbit

View from above orbital plane
View from above orbital plane
View from above satellite
View from above satellite

Ground track
Ground track

The orbit data is extracted from the following two-line orbital elements,

1 20465U 90010A   19112.13700383  .00000205  00000-0  15062-4 0  9991
2 20465  82.4874 319.6776 0015429 178.5689 181.5581 14.97858054586218
Epoch (UTC): 22 April 2019 03:17:17
Eccentricity: 0.0015429
inclination: 82.4874°
perigee height: 563 km
apogee height: 584 km
right ascension of ascending node: 319.6776°
argument of perigee: 178.5689°
revolutions per day: 14.97858054
mean anomaly at epoch: 181.5581°
orbit number at epoch: 58621

The dashed part of the orbit path shows where the satellite is in the earth's shadow,  

DLR